Vancouver, British Columbia

5:06 AM PDT on July 28, 2017 (GMT -0700)
Vancouver International Airport

Weather History for CYVR - April, 2013

Change the Weather History Date:

Friday, April 5, 2013

  Actual Average Record
Temperature  
Mean Temperature 52 °F -  
Max Temperature 55 °F 56 °F 57 °F (2006)
Min Temperature 48 °F 42 °F 32 °F (2015)
Degree Days  
Heating Degree Days 14    
Growing Degree Days 2 (Base 50)    
Moisture  
Dew Point 47 °F    
Average Humidity 84    
Maximum Humidity 94    
Minimum Humidity 63    
Precipitation  
Precipitation 0.16 in 0.10 in - ()
Sea Level Pressure  
Sea Level Pressure 29.75 in    
Wind  
Wind Speed 9 mph ()    
Max Wind Speed 17 mph    
Max Gust Speed -    
Visibility 12.1 miles    
Events Rain    
Averages and records for this station are not official NWS values.
T = Trace of Precipitation, MM = Missing Value Source: Averaged Metar Reports

Daily Weather History Graph

Daily Weather History Graph

Search for Another Location

Airport or City:

Trip Planner

Search our weather history database for the weather conditions in past years. The results will help you decide how hot, cold, wet, or windy it might be!

Date:

Astronomy

Apr. 05, 2013 Rise Set
Actual Time 6:40 AM PDT 7:50 PM PDT
Civil Twilight 6:08 AM PDT 8:23 PM PDT
Nautical Twilight 5:29 AM PDT 9:02 PM PDT
Astronomical Twilight 4:47 AM PDT 9:44 PM PDT
Moon 4:15 AM PDT (4/5) 2:58 PM PDT (4/5)
Length of Visible Light 14h 14m
Length of Day
13h 09m
Waning Crescent, 22% of the Moon is Illuminated
Apr 5
Waning Crescent
Apr 10
New
Apr 18
First Quarter
Apr 25
Full
May 2
Last Quarter

Hourly Weather History & Observations

Time (PDT) Temp. Dew Point Humidity Pressure Visibility Wind Dir Wind Speed Gust Speed Precip Events Conditions
12:00 AM 51.8 °F 48.2 °F 88% 29.65 in 10.0 mi SE 10.4 mph - N/A Rain Light Rain
1:00 AM 51.8 °F 48.2 °F 88% 29.65 in 10.0 mi SE 15.0 mph - N/A Rain Light Rain
2:00 AM 51.8 °F 48.2 °F 88% 29.65 in 10.0 mi SE 11.5 mph - N/A Rain Light Rain
3:00 AM 51.8 °F 48.2 °F 88% 29.66 in 10.0 mi ESE 6.9 mph - N/A Rain Light Rain
4:00 AM 50.0 °F 48.2 °F 94% 29.67 in 10.0 mi ESE 6.9 mph - N/A Rain Light Rain
5:00 AM 50 °F 48 °F 92% 29.68 in 7 mi ESE 9.2 mph - - Rain Light Rain
5:00 AM 50.0 °F 48.2 °F 94% 29.68 in 8.0 mi ESE 9.2 mph - N/A Rain Light Rain
6:00 AM 50.0 °F 48.2 °F 94% 29.70 in 8.0 mi SSE 11.5 mph - N/A Rain Light Rain
7:00 AM 50.0 °F 46.4 °F 87% 29.72 in 10.0 mi South 9.2 mph - N/A Rain Light Rain
8:00 AM 48.2 °F 44.6 °F 87% 29.74 in 15.0 mi SE 5.8 mph - N/A   Overcast
8:39 AM 50.0 °F - N/A% - 15.0 mi ESE 5.8 mph - N/A Rain Light Rain
9:00 AM 50.0 °F 44.6 °F 82% 29.77 in 15.0 mi SE 5.8 mph - N/A   Overcast
10:00 AM 51.8 °F 46.4 °F 82% 29.79 in 15.0 mi East 5.8 mph - N/A   Overcast
10:46 AM 51.8 °F - N/A% - 15.0 mi East 9.2 mph - N/A Rain Light Rain
11:00 AM 52 °F 47 °F 78% 29.81 in 15 mi East 9.2 mph - - Rain Light Rain
11:00 AM 51.8 °F 46.4 °F 82% 29.81 in 15.0 mi East 8.1 mph - N/A Rain Light Rain
11:13 AM 51.8 °F - N/A% - 15.0 mi SE 8.1 mph - N/A   Overcast
12:00 PM 53.6 °F 46.4 °F 77% 29.81 in 15.0 mi South 13.8 mph - N/A   Overcast
12:18 PM 51.8 °F - N/A% - 15.0 mi South 13.8 mph - N/A Rain Light Rain
1:00 PM 53.6 °F 46.4 °F 77% 29.82 in 15.0 mi SSE 11.5 mph - N/A   Overcast
2:00 PM 53.6 °F 48.2 °F 82% 29.82 in 15.0 mi SE 10.4 mph - N/A   Overcast
3:00 PM 55.4 °F 48.2 °F 77% 29.83 in 15.0 mi SSE 10.4 mph - N/A   Overcast
4:00 PM 55.4 °F 48.2 °F 77% 29.82 in 15.0 mi East 10.4 mph - N/A   Overcast
5:00 PM 55 °F 46 °F 63% 29.81 in 15 mi SE 11.5 mph - -   Partly Cloudy
5:00 PM 55.4 °F 46.4 °F 72% 29.81 in 15.0 mi SE 12.7 mph - N/A   Overcast
5:39 PM 55.4 °F - N/A% - 15.0 mi ESE 10.4 mph - N/A Rain Light Rain
6:00 PM 53.6 °F 48.2 °F 82% 29.80 in 15.0 mi East 8.1 mph - N/A Rain Light Rain
7:00 PM 53.6 °F 50.0 °F 88% 29.78 in 6.0 mi East 11.5 mph - N/A Rain Light Rain
7:12 PM 53.6 °F - N/A% - 10.0 mi East 13.8 mph - N/A Rain Light Rain
8:00 PM 51.8 °F 48.2 °F 88% 29.75 in 8.0 mi SE 15.0 mph - N/A Rain Light Rain
9:00 PM 51.8 °F 48.2 °F 88% 29.75 in 8.0 mi SE 11.5 mph - N/A Rain Light Rain
10:00 PM 50.0 °F 48.2 °F 94% 29.75 in 8.0 mi SE 8.1 mph - N/A Rain Light Rain
11:00 PM 50 °F 46 °F 80% 29.73 in 10 mi ESE 17.3 mph - - Rain Light Rain
11:00 PM 50.0 °F 46.4 °F 87% 29.73 in 10.0 mi ESE 17.3 mph - N/A Rain Light Rain